| time (UTC) | temp F | wind direction | speed MPH | gust MPH | rain 1hr in | rain 24hr in | rain mn in | humidity % | barometer mb |
| 20260904155316 | 69 | 212 | 4.0 | 6.0 | 0.00 | 2.02 | 2.02 | 99 | 995.0 |
| 20260904153811 | 69 | 202 | 0.0 | 1.0 | 0.00 | 2.02 | 2.02 | 99 | 994.8 |
| 20260904152309 | 69 | 138 | 3.0 | 4.0 | 0.00 | 2.02 | 2.02 | 99 | 995.1 |
| 20260904150805 | 69 | 221 | 2.0 | 4.0 | 0.19 | 2.01 | 2.01 | 99 | 995.0 |
| 20260904145306 | 69 | 161 | 2.0 | 3.0 | 0.00 | 1.97 | 1.97 | 99 | 994.9 |
| 20260904143803 | 69 | 216 | 4.0 | 6.0 | 0.00 | 1.97 | 1.97 | 99 | 995.0 |
| 20260904142306 | 69 | 201 | 1.0 | 6.0 | 0.07 | 1.97 | 1.97 | 99 | 996.2 |
| 20260904140800 | 69 | 166 | 2.0 | 2.0 | 0.83 | 1.96 | 1.96 | 99 | 996.6 |
| 20260904135256 | 69 | 197 | 2.0 | 2.0 | 0.00 | 1.81 | 1.81 | 99 | 996.2 |
| 20260904133752 | 69 | 185 | 0.0 | 1.0 | 0.00 | 1.81 | 1.81 | 99 | 995.5 |
| 20260904132249 | 69 | 143 | 0.0 | 2.0 | 0.05 | 1.80 | 1.80 | 99 | 996.3 |
| 20260904130749 | 69 | 335 | 6.0 | 8.0 | 0.59 | 1.79 | 1.79 | 99 | 996.5 |
| 20260904125246 | 69 | 19 | 6.0 | 11.0 | 0.42 | 1.51 | 1.51 | 99 | 996.4 |
| 20260904123743 | 70 | 317 | 6.0 | 9.0 | 0.35 | 1.40 | 1.40 | 99 | 995.3 |
| 20260904122239 | 69 | 298 | 2.0 | 4.0 | 0.12 | 1.33 | 1.33 | 99 | 994.9 |
| 20260904120738 | 70 | 284 | 3.0 | 7.0 | 0.05 | 1.30 | 1.30 | 99 | 994.4 |
| 20260904115235 | 70 | 47 | 2.0 | 6.0 | 0.12 | 1.28 | 1.28 | 99 | 994.5 |
| 20260904113731 | 70 | 167 | 1.0 | 2.0 | 0.12 | 1.25 | 1.25 | 99 | 994.5 |
| 20260904112226 | 70 | 63 | 1.0 | 1.0 | 0.12 | 1.23 | 1.23 | 99 | 994.9 |
| 20260904110725 | 70 | 137 | 4.0 | 8.0 | 5.27 | 1.17 | 1.17 | 99 | 994.7 |
| 20260904105220 | 71 | 298 | 12.0 | 17.0 | 0.19 | 0.09 | 0.09 | 99 | 995.1 |
| 20260904103720 | 71 | 188 | 0.0 | 0.0 | 0.12 | 0.04 | 0.04 | 99 | 993.5 |
| 20260904102217 | 71 | 187 | 0.0 | 0.0 | 0.00 | 0.01 | 0.01 | 99 | 993.7 |
| 20260904100716 | 70 | 190 | 0.0 | 0.0 | 0.00 | 0.01 | 0.01 | 99 | 993.2 |
| 20260904095212 | 71 | 178 | 0.0 | 0.0 | 0.00 | 0.01 | 0.01 | 98 | 993.3 |
| 20260904093710 | 71 | 196 | 0.0 | 0.0 | 0.00 | 0.01 | 0.01 | 98 | 993.0 |
| 20260904092207 | 71 | 89 | 0.0 | 0.0 | 0.00 | 0.01 | 0.01 | 98 | 993.1 |
| 20260904090705 | 71 | 170 | 0.0 | 0.0 | 0.00 | 0.01 | 0.01 | 98 | 993.1 |
| 20260904085201 | 71 | 180 | 0.0 | 0.0 | 0.00 | 0.00 | 0.00 | 98 | 992.4 |
| 20260904083700 | 71 | 183 | 0.0 | 0.0 | 0.00 | 0.00 | 0.00 | 97 | 993.3 |
| 20260904082158 | 72 | 187 | 0.0 | 0.0 | 0.00 | 0.00 | 0.00 | 96 | 993.3 |
| 20260904080656 | 72 | 161 | 0.0 | 0.0 | 0.00 | 0.00 | 0.00 | 95 | 993.3 |
| 20260904075154 | 72 | 181 | 0.0 | 0.0 | 0.00 | 0.00 | 0.00 | 96 | 993.3 |
| 20260904073649 | 71 | 192 | 0.0 | 0.0 | 0.00 | 0.00 | 0.00 | 97 | 993.1 |
| 20260904072147 | 71 | 178 | 0.0 | 0.0 | 0.00 | 0.00 | 0.00 | 97 | 993.8 |
| 20260904070643 | 71 | 43 | 1.0 | 2.0 | 0.00 | 0.00 | 0.00 | 97 | 993.5 |
| 20260904065141 | 71 | 129 | 0.0 | 0.0 | 0.00 | 0.00 | 0.00 | 97 | 993.6 |
| 20260904063638 | 71 | 174 | 0.0 | 1.0 | 0.00 | 0.00 | 0.00 | 96 | 992.9 |
| 20260904062137 | 71 | 157 | 3.0 | 6.0 | 0.00 | 0.00 | 0.00 | 95 | 993.5 |
| 20260904060636 | 72 | 149 | 3.0 | 3.0 | 0.00 | 0.00 | 0.00 | 94 | 994.2 |
| 20260904055133 | 71 | 191 | 1.0 | 1.0 | 0.00 | 0.00 | 0.00 | 98 | 994.6 |
| 20260904053631 | 70 | 321 | 0.0 | 0.0 | 0.00 | 0.00 | 0.00 | 99 | 994.9 |
| 20260904052130 | 70 | 176 | 0.0 | 0.0 | 0.00 | 0.00 | 0.00 | 99 | 994.5 |
| 20260904050628 | 70 | 194 | 0.0 | 0.0 | 0.00 | 0.00 | 0.00 | 99 | 994.4 |
| 20260904045124 | 70 | 193 | 0.0 | 0.0 | 0.00 | 0.00 | 0.00 | 99 | 994.5 |
| 20260904043624 | 70 | 180 | 0.0 | 0.0 | 0.00 | 0.00 | 0.00 | 99 | 994.6 |
| 20260904042122 | 70 | 210 | 0.0 | 0.0 | 0.00 | 0.00 | 0.00 | 99 | 994.8 |
| 20260904040621 | 70 | 198 | 0.0 | 0.0 | 0.00 | 0.00 | 0.00 | 99 | 994.9 |
| 20260904035118 | 70 | 174 | 0.0 | 0.0 | 0.00 | 0.24 | 0.24 | 99 | 995.1 |
| 20260904033615 | 70 | 191 | 0.0 | 0.0 | 0.00 | 0.24 | 0.24 | 99 | 995.3 |
| 20260904032112 | 71 | 192 | 0.0 | 0.0 | 0.00 | 0.24 | 0.24 | 98 | 995.3 |
| 20260904030609 | 71 | 186 | 0.0 | 0.0 | 0.00 | 0.24 | 0.24 | 98 | 995.2 |
| 20260904025107 | 71 | 182 | 0.0 | 0.0 | 0.00 | 0.24 | 0.24 | 97 | 995.1 |
| 20260904023606 | 72 | 171 | 0.0 | 2.0 | 0.00 | 0.24 | 0.24 | 97 | 995.2 |
| 20260904022104 | 72 | 166 | 0.0 | 2.0 | 0.00 | 0.24 | 0.24 | 97 | 994.8 |
| 20260904020601 | 71 | 192 | 0.0 | 0.0 | 0.00 | 0.24 | 0.24 | 97 | 994.5 |
| 20260904015101 | 72 | 192 | 0.0 | 0.0 | 0.00 | 0.24 | 0.24 | 97 | 994.7 |
| 20260904013600 | 72 | 160 | 0.0 | 1.0 | 0.00 | 0.24 | 0.24 | 97 | 994.5 |
| 20260904012055 | 73 | 176 | 0.0 | 0.0 | 0.00 | 0.24 | 0.24 | 97 | 994.6 |
| 20260904010552 | 73 | 184 | 0.0 | 0.0 | 0.00 | 0.24 | 0.24 | 96 | 994.5 |
| 20260904005049 | 73 | 180 | 0.0 | 1.0 | 0.00 | 0.24 | 0.24 | 96 | 994.3 |
| 20260904003547 | 73 | 173 | 0.0 | 0.0 | 0.00 | 0.24 | 0.24 | 96 | 994.2 |
| 20260904002044 | 74 | 193 | 0.0 | 0.0 | 0.00 | 0.24 | 0.24 | 94 | 994.1 |
| 20260904000538 | 75 | 194 | 0.0 | 0.0 | 0.00 | 0.24 | 0.24 | 93 | 993.7 |
| 20260903235037 | 76 | 181 | 0.0 | 0.0 | 0.00 | 0.24 | 0.24 | 92 | 993.5 |
| 20260903233535 | 77 | 36 | 3.0 | 3.0 | 0.00 | 0.24 | 0.24 | 91 | 993.6 |
| 20260903232032 | 78 | 231 | 1.0 | 2.0 | 0.00 | 0.24 | 0.24 | 89 | 993.6 |
| 20260903230529 | 78 | 154 | 2.0 | 4.0 | 0.00 | 0.24 | 0.24 | 88 | 993.4 |
| 20260903225027 | 78 | 186 | 0.0 | 1.0 | 0.00 | 0.24 | 0.24 | 88 | 993.5 |
| 20260903223524 | 79 | 189 | 1.0 | 1.0 | 0.00 | 0.24 | 0.24 | 86 | 993.3 |
| 20260903222023 | 80 | 187 | 0.0 | 0.0 | 0.00 | 0.24 | 0.24 | 85 | 993.4 |
| 20260903220521 | 81 | 166 | 2.0 | 2.0 | 0.00 | 0.24 | 0.24 | 82 | 993.5 |
| 20260903215021 | 78 | 176 | 0.0 | 0.0 | 0.00 | 0.24 | 0.24 | 88 | 993.7 |
| 20260903213516 | 80 | 185 | 0.0 | 1.0 | 0.00 | 0.24 | 0.24 | 85 | 993.9 |
| 20260903212014 | 79 | 174 | 2.0 | 2.0 | 0.00 | 0.24 | 0.24 | 87 | 993.9 |
| 20260903210512 | 77 | 189 | 0.0 | 1.0 | 0.00 | 0.24 | 0.24 | 93 | 993.9 |
| 20260903205008 | 76 | 199 | 1.0 | 2.0 | 0.00 | 0.24 | 0.24 | 94 | 993.5 |
| 20260903203507 | 75 | 117 | 2.0 | 3.0 | 0.00 | 0.24 | 0.24 | 96 | 993.2 |
| 20260903202003 | 74 | 180 | 0.0 | 0.0 | 0.00 | 0.24 | 0.24 | 97 | 993.5 |
| 20260903200503 | 74 | 283 | 2.0 | 3.0 | 0.00 | 0.24 | 0.24 | 96 | 994.1 |
| 20260903195001 | 74 | 210 | 0.0 | 1.0 | 0.00 | 0.24 | 0.24 | 95 | 994.1 |
| 20260903193500 | 75 | 293 | 1.0 | 2.0 | 0.00 | 0.24 | 0.24 | 94 | 994.5 |
| 20260903191958 | 75 | 197 | 0.0 | 1.0 | 0.00 | 0.24 | 0.24 | 93 | 994.7 |
| 20260903190454 | 74 | 283 | 2.0 | 2.0 | 0.05 | 0.24 | 0.24 | 94 | 994.3 |
| 20260903184949 | 73 | 256 | 2.0 | 3.0 | 0.12 | 0.23 | 0.23 | 94 | 995.5 |
| 20260903183447 | 73 | 275 | 3.0 | 4.0 | 0.19 | 0.20 | 0.20 | 93 | 995.8 |
| 20260903181948 | 74 | 312 | 3.0 | 6.0 | 0.05 | 0.17 | 0.17 | 90 | 996.1 |
| 20260903180442 | 77 | 27 | 2.0 | 8.0 | 0.00 | 0.16 | 0.16 | 83 | 996.5 |
| 20260903174941 | 79 | 336 | 3.0 | 10.0 | 0.00 | 0.16 | 0.16 | 79 | 996.0 |
| 20260903173437 | 79 | 305 | 4.0 | 9.0 | 0.00 | 0.16 | 0.16 | 83 | 995.5 |
| 20260903171935 | 80 | 210 | 2.0 | 6.0 | 0.00 | 0.16 | 0.16 | 84 | 994.7 |
| 20260903170430 | 80 | 320 | 6.0 | 8.0 | 0.00 | 0.16 | 0.16 | 85 | 994.5 |
| 20260903164930 | 81 | 268 | 7.0 | 9.0 | 0.00 | 0.16 | 0.16 | 84 | 993.8 |
| 20260903163427 | 82 | 268 | 3.0 | 7.0 | 0.00 | 0.16 | 0.16 | 82 | 993.1 |
| 20260903161926 | 83 | 217 | 6.0 | 8.0 | 0.00 | 0.16 | 0.16 | 80 | 992.8 |
| 20260903160422 | 83 | 156 | 4.0 | 8.0 | 0.00 | 0.16 | 0.16 | 79 | 993.1 |